EN

Hourly Weather Janikow

Today, 30 September, Wednesday

Time Temperature Precipitation Wind Pressure Humidity
00:00 +12°C° 0.7 mm 4 mps 743 mmHg 93%
01:00 +12°C° 0 mm 4 mps 743 mmHg 90%
02:00 +12°C° 0.7 mm 5 mps 743 mmHg 91%
03:00 +12°C° 0.7 mm 5 mps 742 mmHg 91%
04:00 +11°C° 0.7 mm 6 mps 742 mmHg 92%
05:00 +11°C° 1 mm 6 mps 742 mmHg 92%
06:00 +11°C° 1 mm 6 mps 742 mmHg 93%
07:00 +11°C° 0 mm 6 mps 742 mmHg 92%
08:00 +11°C° 0.7 mm 6 mps 742 mmHg 93%
09:00 +11°C° 0.7 mm 6 mps 741 mmHg 93%
10:00 +11°C° 0.7 mm 6 mps 741 mmHg 93%
11:00 +11°C° 1.7 mm 7 mps 741 mmHg 93%
12:00 +11°C° 1.7 mm 7 mps 741 mmHg 93%
13:00 +11°C° 1.7 mm 7 mps 740 mmHg 93%
14:00 +11°C° 1.9 mm 7 mps 740 mmHg 93%
15:00 +11°C° 1.9 mm 6 mps 740 mmHg 94%
16:00 +11°C° 1.9 mm 6 mps 740 mmHg 94%
17:00 +12°C° 0.4 mm 5 mps 740 mmHg 93%
18:00 +12°C° 0.4 mm 4 mps 740 mmHg 93%
19:00 +12°C° 0.4 mm 4 mps 740 mmHg 93%
20:00 +12°C° 0 mm 4 mps 740 mmHg 93%
21:00 +12°C° 0 mm 3 mps 740 mmHg 93%
22:00 +11°C° 0 mm 3 mps 740 mmHg 94%
23:00 +11°C° 0 mm 3 mps 740 mmHg 94%

Tomorrow, 1 October, Thursday

Time Temperature Precipitation Wind Pressure Humidity
00:00 +12°C° 0 mm 2 mps 740 mmHg 94%
01:00 +12°C° 0 mm 2 mps 740 mmHg 94%
02:00 +12°C° 0 mm 2 mps 740 mmHg 94%
03:00 +12°C° 0 mm 2 mps 739 mmHg 95%
04:00 +12°C° 0 mm 2 mps 739 mmHg 95%
05:00 +12°C° 0 mm 2 mps 739 mmHg 95%
06:00 +11°C° 0 mm 3 mps 738 mmHg 95%
07:00 +11°C° 0 mm 3 mps 738 mmHg 95%
08:00 +11°C° 0.7 mm 3 mps 738 mmHg 95%
09:00 +11°C° 0.7 mm 3 mps 738 mmHg 95%
10:00 +12°C° 0.7 mm 2 mps 738 mmHg 95%
11:00 +12°C° 0.7 mm 2 mps 738 mmHg 94%
12:00 +12°C° 0.7 mm 2 mps 738 mmHg 94%
13:00 +12°C° 0.7 mm 3 mps 738 mmHg 93%
14:00 +12°C° 0.1 mm 3 mps 738 mmHg 93%
15:00 +12°C° 0.1 mm 3 mps 738 mmHg 92%
16:00 +12°C° 0.1 mm 3 mps 738 mmHg 91%
17:00 +12°C° 0 mm 3 mps 738 mmHg 92%
18:00 +12°C° 0 mm 3 mps 738 mmHg 93%
19:00 +13°C° 0 mm 2 mps 739 mmHg 94%
20:00 +12°C° 0 mm 2 mps 739 mmHg 94%
21:00 +11°C° 0 mm 3 mps 739 mmHg 94%
22:00 +11°C° 0 mm 3 mps 739 mmHg 95%
23:00 +11°C° 0.3 mm 3 mps 739 mmHg 95%

Day after tomorrow, 2 October, Friday

Time Temperature Precipitation Wind Pressure Humidity
00:00 +11°C° 0.3 mm 3 mps 739 mmHg 95%
01:00 +11°C° 0.3 mm 3 mps 739 mmHg 95%
02:00 +11°C° 0.2 mm 3 mps 739 mmHg 95%
03:00 +11°C° 0.2 mm 3 mps 739 mmHg 95%
04:00 +11°C° 0.2 mm 3 mps 739 mmHg 95%
05:00 +11°C° 0 mm 3 mps 739 mmHg 94%
06:00 +12°C° 0 mm 3 mps 739 mmHg 93%
07:00 +12°C° 0 mm 3 mps 740 mmHg 93%
08:00 +12°C° 0.1 mm 3 mps 740 mmHg 90%
09:00 +13°C° 0.1 mm 3 mps 740 mmHg 88%
10:00 +14°C° 0.1 mm 3 mps 740 mmHg 85%
11:00 +14°C° 0.3 mm 3 mps 741 mmHg 82%
12:00 +16°C° 0.3 mm 3 mps 741 mmHg 79%
13:00 +17°C° 0.3 mm 3 mps 741 mmHg 77%
14:00 +17°C° 0.3 mm 3 mps 741 mmHg 78%
15:00 +17°C° 0.3 mm 3 mps 741 mmHg 79%
16:00 +16°C° 0.3 mm 3 mps 741 mmHg 80%
17:00 +14°C° 0 mm 3 mps 741 mmHg 84%
18:00 +13°C° 0 mm 3 mps 742 mmHg 87%
19:00 +12°C° 0 mm 3 mps 742 mmHg 91%
20:00 +12°C° 0 mm 3 mps 742 mmHg 92%
21:00 +12°C° 0 mm 3 mps 742 mmHg 93%
22:00 +11°C° 0 mm 3 mps 742 mmHg 94%
23:00 +11°C° 0 mm 3 mps 742 mmHg 94%

3 October, Saturday

Time Temperature Precipitation Wind Pressure Humidity
00:00 +11°C° 0 mm 3 mps 742 mmHg 95%
01:00 +11°C° 0 mm 3 mps 741 mmHg 95%
02:00 +12°C° 0.1 mm 4 mps 741 mmHg 95%
03:00 +12°C° 0.1 mm 4 mps 741 mmHg 95%
04:00 +13°C° 0.1 mm 4 mps 741 mmHg 95%
05:00 +13°C° 0 mm 5 mps 741 mmHg 93%
06:00 +13°C° 0 mm 6 mps 741 mmHg 91%
07:00 +14°C° 0 mm 7 mps 740 mmHg 89%
08:00 +15°C° 0 mm 7 mps 740 mmHg 83%
09:00 +17°C° 0 mm 7 mps 740 mmHg 77%
10:00 +18°C° 0 mm 7 mps 740 mmHg 71%
11:00 +20°C° 0 mm 8 mps 739 mmHg 66%
12:00 +21°C° 0 mm 8 mps 739 mmHg 61%
13:00 +23°C° 0 mm 8 mps 739 mmHg 56%
14:00 +22°C° 0 mm 7 mps 739 mmHg 58%
15:00 +21°C° 0 mm 7 mps 739 mmHg 61%
16:00 +21°C° 0 mm 6 mps 739 mmHg 63%
17:00 +20°C° 0 mm 6 mps 739 mmHg 64%
18:00 +20°C° 0 mm 7 mps 739 mmHg 65%
19:00 +18°C° 0 mm 7 mps 739 mmHg 66%
20:00 +19°C° 0 mm 6 mps 739 mmHg 67%
21:00 +19°C° 0 mm 6 mps 739 mmHg 68%
22:00 +19°C° 0 mm 6 mps 739 mmHg 68%
23:00 +19°C° 0 mm 6 mps 738 mmHg 69%

4 October, Sunday

Time Temperature Precipitation Wind Pressure Humidity
00:00 +19°C° 0 mm 6 mps 738 mmHg 69%
01:00 +17°C° 0 mm 6 mps 738 mmHg 69%
02:00 +17°C° 0.1 mm 6 mps 738 mmHg 69%
03:00 +17°C° 0.1 mm 6 mps 738 mmHg 70%
04:00 +17°C° 0.1 mm 6 mps 738 mmHg 70%
05:00 +17°C° 0 mm 6 mps 738 mmHg 68%
06:00 +19°C° 0 mm 6 mps 738 mmHg 66%
07:00 +19°C° 0 mm 6 mps 738 mmHg 64%
08:00 +20°C° 0.1 mm 7 mps 738 mmHg 63%
09:00 +21°C° 0.1 mm 7 mps 738 mmHg 61%
10:00 +21°C° 0.1 mm 8 mps 738 mmHg 60%
11:00 +22°C° 0 mm 8 mps 738 mmHg 58%
12:00 +23°C° 0 mm 7 mps 739 mmHg 56%
13:00 +23°C° 0 mm 7 mps 739 mmHg 55%
14:00 +23°C° 0 mm 6 mps 739 mmHg 56%
15:00 +22°C° 0 mm 5 mps 739 mmHg 57%
16:00 +21°C° 0 mm 3 mps 739 mmHg 58%
17:00 +20°C° 0 mm 3 mps 740 mmHg 63%
18:00 +18°C° 0 mm 3 mps 740 mmHg 68%
19:00 +17°C° 0 mm 2 mps 740 mmHg 73%
20:00 +16°C° 0 mm 2 mps 740 mmHg 75%
21:00 +16°C° 0 mm 2 mps 740 mmHg 78%
22:00 +15°C° 0 mm 2 mps 740 mmHg 81%
23:00 +15°C° 0 mm 2 mps 740 mmHg 83%

5 October, Monday

Time Temperature Precipitation Wind Pressure Humidity
00:00 +15°C° 0 mm 2 mps 740 mmHg 85%
01:00 +14°C° 0 mm 2 mps 740 mmHg 88%
02:00 +15°C° 0.1 mm 2 mps 739 mmHg 89%
03:00 +15°C° 0.1 mm 2 mps 739 mmHg 90%
04:00 +15°C° 0.1 mm 2 mps 739 mmHg 92%
05:00 +14°C° 0.2 mm 3 mps 738 mmHg 91%
06:00 +16°C° 0.2 mm 3 mps 738 mmHg 91%
07:00 +17°C° 0.2 mm 4 mps 738 mmHg 90%
08:00 +17°C° 0.1 mm 4 mps 738 mmHg 87%
09:00 +17°C° 0.1 mm 5 mps 738 mmHg 83%
10:00 +19°C° 0.1 mm 5 mps 737 mmHg 80%
11:00 +20°C° 0 mm 5 mps 737 mmHg 71%
12:00 +22°C° 0 mm 6 mps 737 mmHg 61%
13:00 +23°C° 0 mm 6 mps 737 mmHg 52%
14:00 +22°C° 0 mm 6 mps 737 mmHg 55%
15:00 +22°C° 0 mm 5 mps 736 mmHg 58%
16:00 +21°C° 0 mm 4 mps 736 mmHg 61%
17:00 +20°C° 0 mm 4 mps 736 mmHg 64%
18:00 +19°C° 0 mm 5 mps 736 mmHg 68%
19:00 +17°C° 0 mm 5 mps 736 mmHg 71%
20:00 +17°C° 0 mm 4 mps 737 mmHg 74%
21:00 +16°C° 0 mm 3 mps 737 mmHg 78%
22:00 +14°C° 0 mm 3 mps 737 mmHg 81%
23:00 +14°C° 0.3 mm 3 mps 737 mmHg 83%
Show more

We Need Your Consent

Meteoprog and our Service Providers may store and access personal data such as cookies, device identifiers or other similar technologies on your device and process such data to personalise content and ads, as well as provide social media features and to analyse the traffic.

  • Store and/or access information on your device

    Cookies, device identifiers or other information can be stored or accessed on your device for the purposes indicated above.

  • Personalised ads and content, ad and content measurement, audience insights, and products development

    Ads and content can be personalised based on a profile. More data can be added to better personalise ads and content. Ad and content performance can be measured. Insights about the audience who saw the ads and content can be derived. Such data can be used to develop or improve user’s experience, systems and software.

By clicking ‘I Agree’ you will allow the use of indicated cookies, device identifiers, web beacons or other similar technologies. Your settings can be changed in the browser on your device.

For certain purposes, legitimate interests may be relied on, rather than consent. You can read more about this in our Privacy and Cookie Policy.